VKG1195 GCLP-EKCH

Flight info

Callsign VKG1195
Flight time N/A
Altitude 36000
Route VASTO/N0464F380 DCT BAROK DCT SUNES DCT SOTEX DCT EVURA DCT BIRBA DCT BABOV DCT BARDI DCT ZMR DCT NUBLO DCT RONSI DCT DELOG DCT DIDIG DCT USODA DCT ERCUT DCT DITAL DCT ELCOB DCT PODEM DCT BAZOS DCT BELDI DCT VEKIN DCT ADUTO N873 VICOT/N0462F390 DCT ROCZO DCT DOSUR DCT TALSA P729 TUDLO
Aircraft A339/H-SADE1E2E3GHIJ3J5M1P2RWXY/LB2D1

Departure

Time 2026-05-06 14:54
Airport Gran Canaria Airport (GCLP)

Arrival

Time N/A
Airport Copenhagen Kastrup Airport (EKCH)
Time Latitude Longitude Altitude Speed Heading
2026-05-06 14:19 27.93529 -15.38952 97 ft 0 kts 292°
2026-05-06 14:42 27.93526 -15.38944 96 ft 2 kts 297°
2026-05-06 14:42 27.93518 -15.38929 94 ft 2 kts 311°
2026-05-06 14:43 27.93507 -15.38917 93 ft 2 kts 321°
2026-05-06 14:43 27.93495 -15.38908 92 ft 2 kts 332°
2026-05-06 14:43 27.93481 -15.38901 91 ft 2 kts 343°
2026-05-06 14:43 27.93467 -15.38897 91 ft 2 kts 354°
2026-05-06 14:44 27.93452 -15.38897 91 ft 2 kts
2026-05-06 14:44 27.93438 -15.38899 91 ft 2 kts 16°
2026-05-06 14:44 27.93424 -15.38905 91 ft 2 kts 24°
2026-05-06 14:45 27.93401 -15.38916 91 ft 0 kts 22°
2026-05-06 14:48 27.93417 -15.38909 91 ft 5 kts 22°
2026-05-06 14:48 27.93456 -15.38885 91 ft 5 kts 50°
2026-05-06 14:48 27.93450 -15.38833 87 ft 11 kts 107°
2026-05-06 14:49 27.93414 -15.38768 82 ft 8 kts 170°
2026-05-06 14:49 27.93347 -15.38783 80 ft 11 kts 198°
2026-05-06 14:49 27.93265 -15.38818 79 ft 13 kts 201°
2026-05-06 14:49 27.93180 -15.38856 80 ft 12 kts 202°
2026-05-06 14:50 27.93109 -15.38895 82 ft 11 kts 202°
2026-05-06 14:50 27.93029 -15.38930 82 ft 12 kts 200°
2026-05-06 14:50 27.92951 -15.38964 84 ft 11 kts 202°
2026-05-06 14:50 27.92873 -15.38999 84 ft 13 kts 201°
2026-05-06 14:51 27.92772 -15.39043 87 ft 17 kts 201°
2026-05-06 14:51 27.92652 -15.39096 91 ft 19 kts 201°
2026-05-06 14:51 27.92516 -15.39155 95 ft 22 kts 201°
2026-05-06 14:51 27.92379 -15.39217 99 ft 20 kts 201°
2026-05-06 14:52 27.92250 -15.39273 100 ft 19 kts 201°
2026-05-06 14:52 27.92130 -15.39326 101 ft 18 kts 201°
2026-05-06 14:52 27.92008 -15.39381 100 ft 19 kts 202°
2026-05-06 14:52 27.91917 -15.39379 98 ft 14 kts 137°
2026-05-06 14:53 27.91913 -15.39265 94 ft 15 kts 64°
2026-05-06 14:53 27.91964 -15.39200 92 ft 3 kts 20°
2026-05-06 14:53 27.91972 -15.39197 92 ft 4 kts 20°
2026-05-06 14:53 27.92178 -15.39106 87 ft 63 kts 21°
2026-05-06 14:54 27.92771 -15.38843 74 ft 119 kts 21°
2026-05-06 14:54 27.93695 -15.38436 68 ft 164 kts 21°
2026-05-06 14:54 27.94842 -15.37914 254 ft 187 kts 22°
2026-05-06 14:54 27.95986 -15.37381 1066 ft 171 kts 22°
2026-05-06 14:55 27.97070 -15.36887 1675 ft 172 kts 21°
2026-05-06 14:55 27.98185 -15.36451 2258 ft 170 kts 19°
2026-05-06 14:55 27.99726 -15.35842 2692 ft 185 kts 21°
2026-05-06 14:55 28.00549 -15.35495 2897 ft 194 kts 22°
2026-05-06 14:56 28.01842 -15.34930 3224 ft 207 kts 22°
2026-05-06 14:56 28.03224 -15.34313 3612 ft 220 kts 22°
2026-05-06 14:56 28.04689 -15.33672 4043 ft 232 kts 21°
2026-05-06 14:56 28.06212 -15.33012 4502 ft 243 kts 21°
2026-05-06 14:57 28.07820 -15.32312 4986 ft 253 kts 21°
2026-05-06 14:57 28.09482 -15.31575 5486 ft 262 kts 21°
2026-05-06 14:57 28.11180 -15.30817 5996 ft 267 kts 21°
2026-05-06 14:57 28.12932 -15.30055 6626 ft 270 kts 20°
2026-05-06 14:58 28.14706 -15.29371 7287 ft 273 kts 16°
2026-05-06 14:58 28.16595 -15.28797 7497 ft 295 kts 13°
2026-05-06 14:58 28.18620 -15.28231 7284 ft 302 kts 13°
2026-05-06 14:58 28.20595 -15.27680 7685 ft 275 kts 13°
2026-05-06 14:59 28.22448 -15.27160 8314 ft 278 kts 13°
2026-05-06 14:59 28.24328 -15.26629 8941 ft 282 kts 13°
2026-05-06 14:59 28.26230 -15.26087 9566 ft 286 kts 13°
2026-05-06 14:59 28.28154 -15.25536 10191 ft 289 kts 12°
2026-05-06 15:00 28.30116 -15.24975 10820 ft 293 kts 12°
2026-05-06 15:00 28.32090 -15.24307 11277 ft 304 kts 18°
2026-05-06 15:00 28.34023 -15.23304 11675 ft 317 kts 27°
2026-05-06 15:00 28.35949 -15.21960 12085 ft 329 kts 31°
2026-05-06 15:01 28.37897 -15.20503 12492 ft 341 kts 31°
2026-05-06 15:01 28.39891 -15.18995 12894 ft 349 kts 31°
2026-05-06 15:01 28.41917 -15.17466 13390 ft 355 kts 31°
2026-05-06 15:01 28.43953 -15.15932 14040 ft 357 kts 31°
2026-05-06 15:02 28.46042 -15.14362 14668 ft 361 kts 31°
2026-05-06 15:02 28.48123 -15.12802 15259 ft 365 kts 31°
2026-05-06 15:02 28.50249 -15.11209 15852 ft 368 kts 31°
2026-05-06 15:02 28.52407 -15.09592 16440 ft 372 kts 31°
2026-05-06 15:03 28.54548 -15.07987 17012 ft 376 kts 31°
2026-05-06 15:03 28.56756 -15.06331 17590 ft 380 kts 30°
2026-05-06 15:03 28.58959 -15.04679 18153 ft 384 kts 30°
2026-05-06 15:03 28.61201 -15.02997 18718 ft 388 kts 30°
2026-05-06 15:04 28.63438 -15.01317 19265 ft 391 kts 30°
2026-05-06 15:04 28.65702 -14.99616 19803 ft 395 kts 30°
2026-05-06 15:04 28.68003 -14.97887 20329 ft 399 kts 30°
2026-05-06 15:04 28.70338 -14.96131 20852 ft 402 kts 31°
2026-05-06 15:05 28.72663 -14.94381 21348 ft 406 kts 31°
2026-05-06 15:05 28.75017 -14.92608 21842 ft 409 kts 31°
2026-05-06 15:05 28.77373 -14.90833 22315 ft 412 kts 31°
2026-05-06 15:05 28.79791 -14.89010 22790 ft 415 kts 31°
2026-05-06 15:06 28.82202 -14.87191 23240 ft 419 kts 31°
2026-05-06 15:06 28.84603 -14.85378 23679 ft 422 kts 31°
2026-05-06 15:06 28.87062 -14.83522 24105 ft 425 kts 31°
2026-05-06 15:06 28.89518 -14.81667 24524 ft 428 kts 31°
2026-05-06 15:07 28.92000 -14.79793 24924 ft 431 kts 31°
2026-05-06 15:07 28.94524 -14.77886 25312 ft 435 kts 31°
2026-05-06 15:07 28.97038 -14.75985 25689 ft 438 kts 31°
2026-05-06 15:07 28.99580 -14.74061 26065 ft 441 kts 31°
2026-05-06 15:08 29.02142 -14.72120 26428 ft 445 kts 31°
2026-05-06 15:08 29.04726 -14.70161 26781 ft 448 kts 31°
2026-05-06 15:08 29.07334 -14.68182 27134 ft 451 kts 31°
2026-05-06 15:08 29.09944 -14.66200 27476 ft 454 kts 31°
2026-05-06 15:09 29.12584 -14.64195 27809 ft 457 kts 31°
2026-05-06 15:09 29.15200 -14.62207 28130 ft 460 kts 31°
2026-05-06 15:09 29.17876 -14.60172 28456 ft 462 kts 31°
2026-05-06 15:09 29.20536 -14.58147 28775 ft 465 kts 31°
2026-05-06 15:10 29.23237 -14.56090 29084 ft 467 kts 31°
2026-05-06 15:10 29.25932 -14.54037 29385 ft 470 kts 31°
2026-05-06 15:10 29.28647 -14.51967 29682 ft 473 kts 31°
2026-05-06 15:10 29.31406 -14.49862 29995 ft 475 kts 31°
2026-05-06 15:11 29.34138 -14.47776 30284 ft 477 kts 31°
2026-05-06 15:11 29.36885 -14.45677 30577 ft 479 kts 31°
2026-05-06 15:11 29.39646 -14.43565 30859 ft 481 kts 31°
2026-05-06 15:11 29.42460 -14.41413 31149 ft 483 kts 31°
2026-05-06 15:12 29.45244 -14.39282 31443 ft 485 kts 31°
2026-05-06 15:12 29.48047 -14.37134 31721 ft 487 kts 31°
2026-05-06 15:12 29.50832 -14.34999 31976 ft 489 kts 31°
2026-05-06 15:12 29.53663 -14.32828 32213 ft 491 kts 31°
2026-05-06 15:13 29.56524 -14.30633 32464 ft 493 kts 31°
2026-05-06 15:13 29.59355 -14.28456 32704 ft 495 kts 31°
2026-05-06 15:13 29.62189 -14.26278 32937 ft 496 kts 31°
2026-05-06 15:13 29.65065 -14.24066 33173 ft 498 kts 31°
2026-05-06 15:14 29.67956 -14.21840 33454 ft 498 kts 31°
2026-05-06 15:14 29.70809 -14.19641 33782 ft 498 kts 31°
2026-05-06 15:14 29.73682 -14.17425 34095 ft 497 kts 31°
2026-05-06 15:14 29.76510 -14.15243 34394 ft 497 kts 31°
2026-05-06 15:15 29.79387 -14.13023 34677 ft 496 kts 31°
2026-05-06 15:15 29.82245 -14.10817 34953 ft 496 kts 31°
2026-05-06 15:15 29.85087 -14.08621 35215 ft 496 kts 31°
2026-05-06 15:15 29.87961 -14.06399 35481 ft 496 kts 31°
2026-05-06 15:16 29.90811 -14.04193 35729 ft 496 kts 31°
2026-05-06 15:16 29.93634 -14.02007 35975 ft 496 kts 31°
2026-05-06 15:16 29.96498 -13.99786 36213 ft 496 kts 31°
2026-05-06 15:16 29.99372 -13.97558 36413 ft 497 kts 31°
2026-05-06 15:17 30.02204 -13.95360 36579 ft 498 kts 31°
2026-05-06 15:17 30.05078 -13.93128 36731 ft 500 kts 31°
2026-05-06 15:17 30.07975 -13.90876 36895 ft 501 kts 31°
2026-05-06 15:17 30.10750 -13.88717 37061 ft 502 kts 31°
2026-05-06 15:18 30.13633 -13.86472 37211 ft 503 kts 31°
2026-05-06 15:18 30.16535 -13.84212 37354 ft 505 kts 31°
2026-05-06 15:18 30.19451 -13.81938 37505 ft 506 kts 31°
2026-05-06 15:18 30.22336 -13.79688 37641 ft 507 kts 31°
2026-05-06 15:19 30.25254 -13.77410 37782 ft 508 kts 31°
2026-05-06 15:19 30.28174 -13.75128 37929 ft 509 kts 31°
2026-05-06 15:19 30.31120 -13.72825 38020 ft 510 kts 31°
2026-05-06 15:20 30.36962 -13.68248 38033 ft 502 kts 31°
2026-05-06 15:20 30.42626 -13.63804 38029 ft 491 kts 31°
2026-05-06 15:21 30.48230 -13.59411 38028 ft 491 kts 30°
2026-05-06 15:21 30.54063 -13.55358 38028 ft 489 kts 24°
2026-05-06 15:22 30.60103 -13.51675 38028 ft 490 kts 24°
2026-05-06 15:22 30.66099 -13.48051 38028 ft 490 kts 24°
2026-05-06 15:23 30.72154 -13.44375 38028 ft 490 kts 24°
2026-05-06 15:23 30.78143 -13.40724 38028 ft 491 kts 24°
2026-05-06 15:24 30.84174 -13.37040 38028 ft 491 kts 24°
2026-05-06 15:24 30.90200 -13.33354 38026 ft 491 kts 24°
2026-05-06 15:25 30.96236 -13.29657 38028 ft 492 kts 24°
2026-05-06 15:25 31.02280 -13.25950 38028 ft 492 kts 24°
2026-05-06 15:26 31.08279 -13.22264 38029 ft 492 kts 24°
2026-05-06 15:26 31.14316 -13.18550 38028 ft 491 kts 24°
2026-05-06 15:27 31.20346 -13.14834 38027 ft 491 kts 24°
2026-05-06 15:27 31.26365 -13.11120 38017 ft 491 kts 24°
2026-05-06 15:28 31.32391 -13.07398 38001 ft 491 kts 24°
2026-05-06 15:28 31.38418 -13.03667 37992 ft 491 kts 24°
2026-05-06 15:29 31.44442 -12.99934 37985 ft 491 kts 24°
2026-05-06 15:29 31.50453 -12.96202 37980 ft 491 kts 24°
2026-05-06 15:30 31.56464 -12.92466 37976 ft 491 kts 24°
2026-05-06 15:30 31.62473 -12.88725 37974 ft 491 kts 24°
2026-05-06 15:31 31.68482 -12.84980 37974 ft 491 kts 24°
2026-05-06 15:31 31.74465 -12.81244 37975 ft 491 kts 24°
2026-05-06 15:32 31.83505 -12.75589 37985 ft 492 kts 24°
2026-05-06 15:32 31.89518 -12.71822 37994 ft 493 kts 24°
2026-05-06 15:33 31.95567 -12.68026 37998 ft 493 kts 24°
2026-05-06 15:33 32.01564 -12.64257 38002 ft 492 kts 24°
2026-05-06 15:34 32.07562 -12.60478 38000 ft 489 kts 24°
2026-05-06 15:34 32.13554 -12.56702 38000 ft 489 kts 24°
2026-05-06 15:35 32.19511 -12.52943 38000 ft 489 kts 24°
2026-05-06 15:35 32.25497 -12.49159 38000 ft 489 kts 24°
2026-05-06 15:36 32.31482 -12.45367 38000 ft 490 kts 24°
2026-05-06 15:36 32.37481 -12.41563 38000 ft 490 kts 24°
2026-05-06 15:37 32.43447 -12.37774 38000 ft 490 kts 24°
2026-05-06 15:37 32.49422 -12.33973 37998 ft 490 kts 25°
2026-05-06 15:38 32.55391 -12.30169 38000 ft 489 kts 25°
2026-05-06 15:38 32.61354 -12.26364 38000 ft 489 kts 25°
2026-05-06 15:39 32.67331 -12.22545 38000 ft 489 kts 25°
2026-05-06 15:39 32.73295 -12.18728 37999 ft 488 kts 25°
2026-05-06 15:40 32.79225 -12.14926 37996 ft 488 kts 25°
2026-05-06 15:40 32.85185 -12.11100 37993 ft 488 kts 25°
2026-05-06 15:41 32.91145 -12.07269 37988 ft 487 kts 25°
2026-05-06 15:41 32.97082 -12.03445 37984 ft 487 kts 25°
2026-05-06 15:42 33.03009 -11.99622 37979 ft 487 kts 25°
2026-05-06 15:42 33.08993 -11.95758 37975 ft 494 kts 25°
2026-05-06 15:43 33.15008 -11.91868 37974 ft 494 kts 25°
2026-05-06 15:43 33.21030 -11.87964 37974 ft 493 kts 25°
2026-05-06 15:44 33.27040 -11.84063 37974 ft 493 kts 25°
2026-05-06 15:44 33.33036 -11.80166 37974 ft 493 kts 25°
2026-05-06 15:45 33.39027 -11.76265 37974 ft 493 kts 25°
2026-05-06 15:45 33.45003 -11.72369 37974 ft 492 kts 25°
2026-05-06 15:46 33.51006 -11.68448 37976 ft 492 kts 25°
2026-05-06 15:46 33.57017 -11.64515 37982 ft 492 kts 25°
2026-05-06 15:47 33.62992 -11.60599 37991 ft 491 kts 25°
2026-05-06 15:47 33.68973 -11.56674 37997 ft 491 kts 25°
2026-05-06 15:48 33.74938 -11.52754 37999 ft 491 kts 25°
2026-05-06 15:48 33.80898 -11.48830 38000 ft 491 kts 25°
2026-05-06 15:49 33.86872 -11.44890 38000 ft 491 kts 25°
2026-05-06 15:49 33.92844 -11.40946 38000 ft 491 kts 25°
2026-05-06 15:50 33.98820 -11.36993 38000 ft 491 kts 25°
2026-05-06 15:50 34.04783 -11.33042 37998 ft 489 kts 25°
2026-05-06 15:51 34.10726 -11.29097 38000 ft 489 kts 25°